Greeley, CO

12:31 PM MDT on October 22, 2017 (GMT -0600)
Greeley-Weld County

Weather History for KGXY - June, 2013

Change the Weather History Date:

Monday, June 17, 2013

  Actual Average Record
Temperature  
Mean Temperature 66 °F -  
Max Temperature 82 °F - 100 °F (2007)
Min Temperature 50 °F - 44 °F (2000)
Degree Days  
Heating Degree Days 0    
Month to date heating degree days  
Cooling Degree Days 1    
Month to date cooling degree days  
Growing Degree Days 16 (Base 50)    
Moisture  
Dew Point 48 °F    
Average Humidity 54    
Maximum Humidity 77    
Minimum Humidity 26    
Precipitation  
Precipitation 0.00 in - 0.85 in (1979)
Sea Level Pressure  
Sea Level Pressure 30.14 in    
Wind  
Wind Speed 8 mph (NE)    
Max Wind Speed 24 mph    
Max Gust Speed 31 mph    
Visibility 10 miles    
Events      
T = Trace of Precipitation, MM = Missing Value Source: NWS Daily Summary

Daily Weather History Graph

Daily Weather History Graph

Search for Another Location

Airport or City:

Trip Planner

Search our weather history database for the weather conditions in past years. The results will help you decide how hot, cold, wet, or windy it might be!

Date:

Astronomy

Jun. 17, 2013 Rise Set
Actual Time 5:27 AM MDT 8:31 PM MDT
Civil Twilight 4:54 AM MDT 9:04 PM MDT
Nautical Twilight 4:12 AM MDT 9:46 PM MDT
Astronomical Twilight 3:22 AM MDT 10:36 PM MDT
Moon 2:11 PM MDT (6/17) 1:05 AM MDT (6/17)
Length of Visible Light 16h 09m
Length of Day
15h 03m
First Quarter, 61% of the Moon is Illuminated
Jun 17
First Quarter
Jun 23
Full
Jun 29
Last Quarter
Jul 8
New
Jul 15
First Quarter

Hourly Weather History & Observations

Time (MDT) Temp. Dew Point Humidity Pressure Visibility Wind Dir Wind Speed Gust Speed Precip Events Conditions
12:15 AM 59.0 °F 42.8 °F 55% 30.11 in 10.0 mi NE 8.1 mph - N/A   Overcast
12:35 AM 57.2 °F 44.6 °F 63% 30.12 in 10.0 mi Calm Calm - N/A   Overcast
12:55 AM 57.2 °F 46.4 °F 67% 30.13 in 10.0 mi WNW 4.6 mph - N/A   Overcast
1:15 AM 55.4 °F 44.6 °F 67% 30.12 in 10.0 mi North 4.6 mph - N/A   Overcast
1:35 AM 53.6 °F 44.6 °F 72% 30.13 in 10.0 mi NW 3.5 mph - N/A   Overcast
1:55 AM 55.4 °F 46.4 °F 72% 30.13 in 10.0 mi WNW 5.8 mph - N/A   Overcast
2:15 AM 55.4 °F 44.6 °F 67% 30.13 in 10.0 mi NNW 9.2 mph - N/A   Overcast
2:35 AM 55.4 °F 44.6 °F 67% 30.12 in 10.0 mi NNW 9.2 mph - N/A   Overcast
2:55 AM 55.4 °F 46.4 °F 72% 30.12 in 10.0 mi NNW 5.8 mph - N/A   Overcast
3:35 AM 53.6 °F 46.4 °F 77% 30.13 in 10.0 mi WSW 5.8 mph - N/A   Overcast
4:15 AM 51.8 °F 44.6 °F 76% 30.13 in 10.0 mi NNW 4.6 mph - N/A   Overcast
4:35 AM 51.8 °F 42.8 °F 71% 30.13 in 10.0 mi North 4.6 mph - N/A   Overcast
4:55 AM 51.8 °F 44.6 °F 76% 30.14 in 10.0 mi WNW 4.6 mph - N/A   Overcast
5:15 AM 51.8 °F 42.8 °F 71% 30.14 in 10.0 mi NNW 5.8 mph - N/A   Overcast
5:35 AM 51.8 °F 44.6 °F 76% 30.14 in 10.0 mi North 5.8 mph - N/A   Overcast
5:55 AM 51.8 °F 44.6 °F 76% 30.15 in 10.0 mi NNW 3.5 mph - N/A   Overcast
6:15 AM 50.0 °F 42.8 °F 76% 30.16 in 10.0 mi Calm Calm - N/A   Overcast
6:55 AM 53.6 °F 46.4 °F 77% 30.17 in 10.0 mi Calm Calm - N/A   Overcast
7:15 AM 55.4 °F 46.4 °F 72% 30.18 in 10.0 mi Calm Calm - N/A   Overcast
7:35 AM 57.2 °F 48.2 °F 72% 30.19 in 10.0 mi NNE 8.1 mph - N/A   Overcast
7:55 AM 60.8 °F 48.2 °F 63% 30.20 in 10.0 mi NNE 13.8 mph - N/A   Overcast
8:15 AM 62.6 °F 50.0 °F 63% 30.20 in 10.0 mi NNE 10.4 mph - N/A   Overcast
8:35 AM 64.4 °F 51.8 °F 64% 30.20 in 10.0 mi NNE 12.7 mph - N/A   Overcast
8:55 AM 64.4 °F 51.8 °F 64% 30.20 in 10.0 mi NNE 9.2 mph - N/A   Overcast
9:15 AM 66.2 °F 51.8 °F 60% 30.21 in 10.0 mi ENE 9.2 mph - N/A   Overcast
9:35 AM 66.2 °F 51.8 °F 60% 30.20 in 10.0 mi ENE 10.4 mph 17.3 mph N/A   Overcast
9:55 AM 68.0 °F 51.8 °F 56% 30.20 in 10.0 mi NE 12.7 mph - N/A   Overcast
10:15 AM 69.8 °F 51.8 °F 53% 30.20 in 10.0 mi East 8.1 mph - N/A   Overcast
10:55 AM 71.6 °F 51.8 °F 50% 30.19 in 10.0 mi East 10.4 mph - N/A   Overcast
11:15 AM 71.6 °F 51.8 °F 50% 30.18 in 10.0 mi NE 11.5 mph 18.4 mph N/A   Overcast
11:35 AM 73.4 °F 53.6 °F 50% 30.18 in 10.0 mi ENE 10.4 mph - N/A   Overcast
11:55 AM 73.4 °F 51.8 °F 47% 30.18 in 10.0 mi North 5.8 mph - N/A   Overcast
12:35 PM 75.2 °F 51.8 °F 44% 30.18 in 10.0 mi North 4.6 mph - N/A   Partly Cloudy
12:55 PM 77.0 °F 50.0 °F 39% 30.16 in 10.0 mi Calm Calm - N/A   Clear
1:15 PM 80.6 °F 51.8 °F 37% 30.15 in 9.0 mi SSE 6.9 mph - N/A   Clear
1:35 PM 80.6 °F 50.0 °F 34% 30.13 in 10.0 mi South 9.2 mph - N/A   Clear
1:55 PM 82.4 °F 51.8 °F 35% 30.13 in 10.0 mi South 6.9 mph 17.3 mph N/A   Clear
2:15 PM 82.4 °F 50.0 °F 32% 30.13 in 10.0 mi South 8.1 mph 16.1 mph N/A   Clear
2:35 PM 80.6 °F 48.2 °F 32% 30.12 in 10.0 mi South 6.9 mph - N/A   Clear
2:55 PM 82.4 °F 48.2 °F 30% 30.11 in 10.0 mi South 6.9 mph - N/A   Clear
3:15 PM 82.4 °F 48.2 °F 30% 30.12 in 10.0 mi WSW 11.5 mph 16.1 mph N/A   Clear
3:35 PM 80.6 °F 48.2 °F 32% 30.12 in 10.0 mi NW 9.2 mph - N/A   Clear
3:55 PM 78.8 °F 46.4 °F 32% 30.12 in 10.0 mi West 10.4 mph 16.1 mph N/A   Clear
4:15 PM 78.8 °F 46.4 °F 32% 30.11 in 10.0 mi WNW 8.1 mph - N/A   Scattered Clouds
4:35 PM 78.8 °F 46.4 °F 32% 30.09 in 10.0 mi WSW 6.9 mph - N/A   Partly Cloudy
4:55 PM 80.6 °F 46.4 °F 30% 30.09 in 10.0 mi North 5.8 mph - N/A   Clear
5:15 PM 80.6 °F 44.6 °F 28% 30.08 in 10.0 mi NE 4.6 mph - N/A   Clear
5:35 PM 80.6 °F 44.6 °F 28% 30.07 in 10.0 mi Calm Calm - N/A   Clear
5:55 PM 80.6 °F 42.8 °F 26% 30.05 in 10.0 mi East 5.8 mph - N/A   Clear
6:15 PM 80.6 °F 44.6 °F 28% 30.05 in 10.0 mi ESE 5.8 mph - N/A   Clear
6:35 PM 80.6 °F 42.8 °F 26% 30.06 in 10.0 mi East 5.8 mph - N/A   Clear
6:55 PM 78.8 °F 44.6 °F 30% 30.08 in 10.0 mi East 18.4 mph 26.5 mph N/A   Clear
7:15 PM 71.6 °F 50.0 °F 46% 30.09 in 10.0 mi ESE 24.2 mph 29.9 mph N/A   Clear
7:35 PM 69.8 °F 48.2 °F 46% 30.09 in 10.0 mi ESE 20.7 mph 31.1 mph N/A   Clear
7:55 PM 69.8 °F 50.0 °F 49% 30.10 in 10.0 mi ESE 21.9 mph 28.8 mph N/A   Clear
8:15 PM 68.0 °F 50.0 °F 52% 30.10 in 10.0 mi ESE 17.3 mph 26.5 mph N/A   Clear
8:35 PM 66.2 °F 51.8 °F 60% 30.11 in 10.0 mi ESE 17.3 mph 21.9 mph N/A   Clear
8:55 PM 66.2 °F 51.8 °F 60% 30.11 in 10.0 mi SE 15.0 mph 25.3 mph N/A   Clear
9:35 PM 66.2 °F 51.8 °F 60% 30.13 in 10.0 mi ESE 13.8 mph - N/A   Clear
9:55 PM 66.2 °F 51.8 °F 60% 30.13 in 10.0 mi ESE 13.8 mph - N/A   Clear
10:15 PM 64.4 °F 51.8 °F 64% 30.14 in 10.0 mi ESE 16.1 mph 21.9 mph N/A   Clear
10:35 PM 64.4 °F 53.6 °F 68% 30.14 in 10.0 mi East 18.4 mph - N/A   Clear
11:15 PM 64.4 °F 50.0 °F 59% 30.13 in 10.0 mi ESE 15.0 mph 21.9 mph N/A   Partly Cloudy
11:35 PM 62.6 °F 50.0 °F 63% 30.13 in 10.0 mi East 12.7 mph - N/A   Clear
11:55 PM 60.8 °F 50.0 °F 68% 30.14 in 10.0 mi East 11.5 mph - N/A   Partly Cloudy